Simultaneous Nadir Overpasses (SNOs) Predictions

Prediction of SNOs between GOES-16 and METOP-B Satellite Orbit:

Table of predicted SNOs for the next 14.0 days since TLE Epoch: 8/10/2024
Index Date Time (GOES-16) GOES-16 Lat,Lon METOP-B Lat,Lon Distance(km) Time Diff (sec)
1 08/11/2024 14:30:12 -0.02, -75.21 0.56, -77.78 292.45 80
2 08/12/2024 14:12:14 -0.02, -75.22 -0.57, -72.80 275.89 80
3 08/14/2024 02:28:36 0.02, -75.22 -0.47, -77.42 250.08 80
4 08/15/2024 02:10:38 0.02, -75.23 0.62, -72.43 318.29 80
5 08/16/2024 14:26:52 -0.02, -75.24 0.37, -77.02 202.70 80
6 08/17/2024 14:08:54 -0.03, -75.25 -0.72, -72.03 365.79 80
7 08/19/2024 02:27:56 0.03, -75.25 -0.30, -76.65 159.30 80
8 08/20/2024 02:04:38 0.02, -75.27 0.80, -71.66 409.75 80
9 08/21/2024 14:23:32 -0.02, -75.29 0.17, -76.26 109.77 80
10 08/22/2024 14:05:34 -0.02, -75.30 -0.94, -71.27 459.79 80
11 08/24/2024 02:24:35 0.02, -75.32 -0.11, -75.88 63.79 80
